Radiation Dose at Monitoring Post of Fukushima Daini Nuclear Power Station
Date,Time,MP-1(microSv/h),MP-2(microSv/h),MP-3(microSv/h),MP-4(microSv/h),MP-5(microSv/h),MP-6(microSv/h),MP-7(microSv/h),Wind Direction,Wind Velocity(m/s),Rain
2022/09/17,00:00,0.155,0.145,0.230,0.220,0.219,0.124,0.078,south-southwest,3.4,No
2022/09/17,00:10,0.155,0.143,0.231,0.217,0.216,0.123,0.079,south-southwest,3.3,No
2022/09/17,00:20,0.156,0.144,0.229,0.221,0.216,0.124,0.078,south-southwest,3.0,No
2022/09/17,00:30,0.154,0.144,0.229,0.220,0.218,0.124,0.079,south,2.8,No
2022/09/17,00:40,0.156,0.144,0.230,0.220,0.216,0.124,0.079,south,3.1,No
2022/09/17,00:50,0.154,0.143,0.230,0.219,0.219,0.124,0.079,south-southwest,2.6,No
2022/09/17,01:00,0.156,0.144,0.230,0.219,0.217,0.124,0.079,south,2.0,No
2022/09/17,01:10,0.156,0.144,0.228,0.220,0.216,0.124,0.079,south-southwest,2.4,No
2022/09/17,01:20,0.154,0.144,0.231,0.217,0.218,0.124,0.079,south-southwest,2.7,No
2022/09/17,01:30,0.156,0.144,0.230,0.221,0.216,0.124,0.079,south-southwest,2.5,No
2022/09/17,01:40,0.155,0.143,0.231,0.220,0.218,0.125,0.079,south,2.1,No
2022/09/17,01:50,0.157,0.144,0.230,0.220,0.217,0.123,0.079,south-southwest,1.5,No
2022/09/17,02:00,0.155,0.143,0.230,0.220,0.217,0.124,0.080,south,2.4,No
2022/09/17,02:10,0.155,0.144,0.229,0.219,0.218,0.124,0.079,south,1.7,No
2022/09/17,02:20,0.156,0.144,0.229,0.221,0.216,0.124,0.080,south,1.4,Yes
2022/09/17,02:30,0.154,0.145,0.231,0.218,0.218,0.125,0.079,south,1.3,No
2022/09/17,02:40,0.156,0.144,0.228,0.220,0.218,0.124,0.079,south,1.7,No
2022/09/17,02:50,0.155,0.144,0.231,0.220,0.216,0.125,0.080,south-southeast,1.6,No
2022/09/17,03:00,0.155,0.144,0.228,0.218,0.218,0.125,0.079,south,1.6,No
2022/09/17,03:10,0.156,0.144,0.231,0.221,0.217,0.124,0.080,south,1.4,Yes
2022/09/17,03:20,0.155,0.145,0.229,0.218,0.215,0.125,0.078,south-southeast,1.9,No
2022/09/17,03:30,0.157,0.144,0.229,0.220,0.220,0.125,0.079,south-southeast,2.6,Yes
2022/09/17,03:40,0.156,0.145,0.230,0.219,0.218,0.124,0.080,southeast,4.2,No
2022/09/17,03:50,0.156,0.144,0.230,0.219,0.215,0.125,0.079,south-southeast,4.1,No
2022/09/17,04:00,0.157,0.145,0.230,0.221,0.219,0.124,0.079,south-southeast,3.6,No
2022/09/17,04:10,0.155,0.144,0.230,0.220,0.217,0.126,0.080,south-southeast,2.1,No
2022/09/17,04:20,0.156,0.143,0.228,0.220,0.218,0.124,0.079,south-southeast,3.8,No
2022/09/17,04:30,0.157,0.145,0.231,0.221,0.220,0.124,0.080,southeast,4.3,No
2022/09/17,04:40,0.156,0.145,0.229,0.220,0.217,0.125,0.080,south-southeast,3.9,No
2022/09/17,04:50,0.156,0.145,0.231,0.221,0.219,0.124,0.079,south-southeast,4.3,No
2022/09/17,05:00,0.156,0.144,0.231,0.220,0.218,0.125,0.081,southeast,1.3,No
2022/09/17,05:10,0.155,0.144,0.230,0.219,0.217,0.124,0.079,east-southeast,1.0,No
2022/09/17,05:20,0.157,0.145,0.232,0.221,0.220,0.124,0.080,south-southeast,3.9,No
2022/09/17,05:30,0.156,0.144,0.230,0.220,0.216,0.125,0.079,south-southeast,3.6,No
2022/09/17,05:40,0.156,0.145,0.231,0.222,0.218,0.124,0.079,south-southeast,2.9,No
2022/09/17,05:50,0.156,0.144,0.229,0.220,0.219,0.124,0.080,south-southeast,3.5,No
2022/09/17,06:00,0.155,0.145,0.231,0.220,0.216,0.125,0.079,south-southeast,3.0,No
2022/09/17,06:10,0.157,0.144,0.228,0.221,0.219,0.125,0.080,south,2.9,No
2022/09/17,06:20,0.156,0.144,0.230,0.219,0.217,0.125,0.079,south-southeast,2.7,No
2022/09/17,06:30,0.155,0.144,0.230,0.220,0.215,0.124,0.079,south-southeast,2.7,No
2022/09/17,06:40,0.156,0.144,0.229,0.220,0.219,0.124,0.080,south-southeast,2.6,No
2022/09/17,06:50,0.156,0.145,0.231,0.217,0.217,0.124,0.079,south-southeast,2.9,No
2022/09/17,07:00,0.155,0.145,0.231,0.221,0.215,0.124,0.079,south-southeast,2.5,No
2022/09/17,07:10,0.155,0.144,0.228,0.220,0.217,0.123,0.079,south-southeast,1.7,No
2022/09/17,07:20,0.155,0.145,0.231,0.218,0.217,0.124,0.079,south-southeast,2.3,No
2022/09/17,07:30,0.155,0.144,0.231,0.220,0.217,0.123,0.080,southeast,1.2,No
2022/09/17,07:40,0.156,0.144,0.229,0.221,0.214,0.122,0.079,southeast,1.3,No
2022/09/17,07:50,0.156,0.144,0.227,0.217,0.217,0.123,0.078,south-southeast,1.4,No
2022/09/17,08:00,0.154,0.146,0.231,0.217,0.219,0.124,0.079,south-southeast,1.1,No
2022/09/17,08:10,0.155,0.145,0.229,0.216,0.217,0.124,0.079,southeast,0.8,No
2022/09/17,08:20,0.156,0.143,0.230,0.217,0.215,0.123,0.079,east-southeast,1.2,No
2022/09/17,08:30,0.157,0.143,0.227,0.220,0.216,0.124,0.078,east-southeast,1.5,No
2022/09/17,08:40,0.154,0.144,0.228,0.220,0.215,0.124,0.079,southeast,1.4,No
2022/09/17,08:50,0.154,0.144,0.226,0.219,0.214,0.124,0.079,southeast,2.3,No
2022/09/17,09:00,0.154,0.144,0.229,0.219,0.215,0.124,0.079,south-southeast,3.2,No
2022/09/17,09:10,0.154,0.143,0.229,0.217,0.214,0.124,0.079,south-southeast,3.3,No
2022/09/17,09:20,0.154,0.143,0.227,0.219,0.215,0.124,0.079,south-southeast,4.1,No
2022/09/17,09:30,0.154,0.143,0.228,0.219,0.216,0.124,0.079,south-southeast,4.0,No
2022/09/17,09:40,0.155,0.143,0.229,0.219,0.216,0.124,0.079,south-southeast,3.2,No
2022/09/17,09:50,0.154,0.143,0.230,0.220,0.217,0.123,0.079,south-southeast,4.4,No
2022/09/17,10:00,0.154,0.142,0.229,0.219,0.217,0.124,0.079,south-southeast,4.7,No
2022/09/17,10:10,0.154,0.143,0.229,0.219,0.216,0.123,0.079,south-southeast,4.2,No
2022/09/17,10:20,0.154,0.143,0.229,0.219,0.217,0.124,0.080,south-southeast,4.3,Yes
2022/09/17,10:30,0.155,0.144,0.230,0.219,0.216,0.124,0.079,south-southeast,3.8,No
2022/09/17,10:40,0.155,0.144,0.230,0.219,0.217,0.124,0.079,south-southeast,5.8,No
2022/09/17,10:50,0.155,0.144,0.230,0.220,0.218,0.124,0.079,south-southeast,5.6,No
2022/09/17,11:00,0.155,0.144,0.228,0.219,0.218,0.126,0.079,southeast,5.7,No
2022/09/17,11:10,0.155,0.145,0.228,0.218,0.218,0.124,0.078,southeast,5.6,No
2022/09/17,11:20,0.155,0.143,0.228,0.219,0.217,0.124,0.078,southeast,4.1,No
2022/09/17,11:30,0.154,0.144,0.230,0.218,0.216,0.124,0.078,southeast,5.3,No
2022/09/17,11:40,0.155,0.143,0.230,0.218,0.216,0.123,0.078,southeast,5.9,No
2022/09/17,11:50,0.156,0.144,0.229,0.219,0.216,0.124,0.078,southeast,5.1,No
2022/09/17,12:00,0.155,0.143,0.229,0.219,0.216,0.124,0.078,south-southeast,5.7,No
2022/09/17,12:10,0.155,0.143,0.230,0.220,0.216,0.124,0.078,southeast,5.8,No
2022/09/17,12:20,0.155,0.143,0.229,0.218,0.217,0.124,0.077,south-southeast,6.6,No
2022/09/17,12:30,0.155,0.144,0.230,0.220,0.218,0.125,0.079,south-southeast,5.9,No
2022/09/17,12:40,0.155,0.144,0.230,0.220,0.216,0.124,0.078,south-southeast,6.0,No
2022/09/17,12:50,0.154,0.144,0.229,0.219,0.217,0.123,0.079,south-southeast,5.8,No
2022/09/17,13:00,0.155,0.144,0.228,0.219,0.217,0.124,0.078,south-southeast,6.7,No
2022/09/17,13:10,0.154,0.143,0.229,0.220,0.217,0.123,0.078,south-southeast,6.4,No
2022/09/17,13:20,0.155,0.144,0.230,0.219,0.217,0.124,0.078,south-southeast,6.7,No
2022/09/17,13:30,0.155,0.143,0.229,0.219,0.217,0.124,0.078,south-southeast,8.1,No
2022/09/17,13:40,0.154,0.143,0.230,0.220,0.217,0.124,0.078,south-southeast,6.2,No
2022/09/17,13:50,0.154,0.144,0.228,0.221,0.217,0.124,0.079,south-southeast,6.8,No
2022/09/17,14:00,0.156,0.144,0.228,0.221,0.217,0.124,0.078,south-southeast,6.4,No
2022/09/17,14:10,0.155,0.144,0.229,0.219,0.217,0.125,0.079,south-southeast,6.7,No
2022/09/17,14:20,0.155,0.144,0.230,0.219,0.216,0.125,0.079,south-southeast,6.1,No
2022/09/17,14:30,0.155,0.143,0.228,0.218,0.216,0.124,0.078,south-southeast,6.9,No
2022/09/17,14:40,0.154,0.144,0.228,0.219,0.216,0.123,0.078,south,6.5,No
2022/09/17,14:50,0.154,0.143,0.228,0.219,0.215,0.124,0.078,south,6.7,No
2022/09/17,15:00,0.154,0.143,0.228,0.220,0.215,0.124,0.078,south,6.4,No
2022/09/17,15:10,0.155,0.143,0.228,0.222,0.215,0.125,0.078,south,5.7,No
2022/09/17,15:20,0.154,0.143,0.228,0.221,0.216,0.124,0.078,south-southeast,5.9,No
2022/09/17,15:30,0.156,0.143,0.229,0.221,0.216,0.124,0.079,south-southeast,6.2,No
2022/09/17,15:40,0.155,0.143,0.231,0.221,0.217,0.124,0.078,south-southeast,6.5,No
2022/09/17,15:50,0.156,0.144,0.230,0.218,0.215,0.124,0.078,south-southeast,7.3,No
2022/09/17,16:00,0.155,0.144,0.230,0.219,0.216,0.124,0.079,south,7.7,No
2022/09/17,16:10,0.155,0.144,0.229,0.222,0.215,0.123,0.078,south-southeast,7.6,No
2022/09/17,16:20,0.154,0.144,0.228,0.220,0.217,0.124,0.079,south-southeast,8.1,No
2022/09/17,16:30,0.155,0.143,0.232,0.220,0.216,0.124,0.079,south-southeast,8.4,No
2022/09/17,16:40,0.158,0.144,0.232,0.219,0.217,0.123,0.078,south-southeast,8.1,No
2022/09/17,16:50,0.156,0.144,0.229,0.223,0.220,0.124,0.078,south-southeast,8.1,No
2022/09/17,17:00,0.154,0.144,0.231,0.221,0.219,0.123,0.080,south,8.1,No
2022/09/17,17:10,0.154,0.143,0.232,0.219,0.216,0.124,0.079,south-southeast,9.3,No
2022/09/17,17:20,0.156,0.144,0.231,0.220,0.217,0.124,0.079,south-southeast,8.4,No
2022/09/17,17:30,0.156,0.145,0.229,0.222,0.219,0.124,0.078,south-southeast,9.0,No
2022/09/17,17:40,0.154,0.143,0.230,0.219,0.216,0.124,0.079,south-southeast,7.8,No
2022/09/17,17:50,0.154,0.143,0.232,0.218,0.215,0.124,0.078,south-southeast,7.1,No
2022/09/17,18:00,0.157,0.146,0.229,0.221,0.219,0.125,0.077,south-southeast,7.4,No
2022/09/17,18:10,0.155,0.144,0.230,0.223,0.219,0.124,0.079,south,7.2,No
2022/09/17,18:20,0.154,0.143,0.231,0.220,0.218,0.124,0.079,south,7.0,No
2022/09/17,18:30,0.154,0.144,0.230,0.220,0.215,0.124,0.079,south,6.4,No
2022/09/17,18:40,0.157,0.144,0.228,0.222,0.218,0.125,0.077,south-southeast,5.6,No
2022/09/17,18:50,0.155,0.144,0.231,0.220,0.218,0.123,0.078,south-southeast,5.7,No
2022/09/17,19:00,0.154,0.144,0.230,0.219,0.216,0.124,0.079,south,6.8,No
2022/09/17,19:10,0.154,0.144,0.228,0.220,0.215,0.125,0.078,south,6.9,No
2022/09/17,19:20,0.157,0.144,0.230,0.220,0.219,0.124,0.078,south,5.4,No
2022/09/17,19:30,0.156,0.143,0.230,0.220,0.217,0.123,0.079,south,4.6,No
2022/09/17,19:40,0.154,0.145,0.230,0.219,0.216,0.124,0.078,south,5.2,No
2022/09/17,19:50,0.155,0.144,0.229,0.223,0.218,0.124,0.077,south,4.7,No
2022/09/17,20:00,0.156,0.143,0.231,0.221,0.220,0.123,0.079,south,5.3,No
2022/09/17,20:10,0.154,0.144,0.230,0.219,0.217,0.124,0.078,south,5.3,No
2022/09/17,20:20,0.154,0.145,0.227,0.221,0.215,0.124,0.078,south,5.3,No
2022/09/17,20:30,0.157,0.144,0.232,0.221,0.219,0.124,0.078,south,6.2,No
2022/09/17,20:40,0.154,0.143,0.231,0.220,0.219,0.123,0.079,south,5.2,No
2022/09/17,20:50,0.154,0.145,0.228,0.219,0.216,0.123,0.078,south,5.8,No
2022/09/17,21:00,0.155,0.143,0.230,0.222,0.217,0.124,0.078,south,6.1,No
2022/09/17,21:10,0.157,0.144,0.232,0.221,0.220,0.124,0.079,south,5.6,No
2022/09/17,21:20,0.154,0.145,0.229,0.219,0.217,0.123,0.079,south,5.9,No
2022/09/17,21:30,0.154,0.144,0.229,0.221,0.214,0.123,0.078,south,6.2,No
2022/09/17,21:40,0.156,0.144,0.231,0.221,0.216,0.124,0.079,south,5.8,No
2022/09/17,21:50,0.156,0.144,0.231,0.220,0.218,0.124,0.079,south,5.7,No
2022/09/17,22:00,0.154,0.144,0.228,0.219,0.217,0.123,0.078,south,5.8,No
2022/09/17,22:10,0.155,0.144,0.231,0.222,0.215,0.123,0.079,south,5.3,No
2022/09/17,22:20,0.156,0.145,0.231,0.221,0.218,0.125,0.079,south,6.1,No
2022/09/17,22:30,0.155,0.143,0.229,0.218,0.218,0.124,0.078,south,5.3,No
2022/09/17,22:40,0.155,0.145,0.231,0.221,0.215,0.123,0.078,south,4.1,No
2022/09/17,22:50,0.157,0.145,0.231,0.221,0.217,0.124,0.078,south,3.3,Yes
2022/09/17,23:00,0.155,0.144,0.228,0.219,0.218,0.124,0.078,south,3.8,Yes
2022/09/17,23:10,0.154,0.144,0.229,0.219,0.216,0.124,0.079,south,5.6,Yes
2022/09/17,23:20,0.155,0.145,0.232,0.222,0.215,0.123,0.079,south,5.1,Yes
2022/09/17,23:30,0.156,0.143,0.229,0.220,0.219,0.126,0.080,south,5.8,Yes
2022/09/17,23:40,0.156,0.144,0.230,0.218,0.218,0.125,0.079,south,5.9,Yes
2022/09/17,23:50,0.155,0.145,0.231,0.221,0.216,0.123,0.078,south,6.4,Yes
